Theta_e
355 366 365 365 366 366 366 365 364 363 362 362 362 361 361 361 361 361 362 363 363 363 360 361 361 362 361 358 357 358 356 355 354 354 354 353 353 351 350 350 350 348 350
360 367 364 364 365 366 366 365 363 362 361 361 361 361 361 361 360 361 362 363 364 362 359 360 360 359 359 356 355 355 355 355 354 354 354 353 353 351 350 350 350 351 349
361 367 363 363 365 366 365 365 363 362 361 361 361 361 361 361 360 361 362 363 364 361 358 357 358 357 356 355 354 354 354 354 355 355 354 353 352 355 355 353 351 349 350
363 367 363 363 364 364 365 364 363 363 362 361 361 361 361 360 360 361 362 363 362 359 357 354 353 353 353 353 353 353 354 353 354 355 353 349 347 355 355 355 353 351 351
365 367 365 363 363 363 364 363 362 362 362 361 361 361 361 360 360 361 361 363 361 358 356 354 353 352 352 352 353 353 352 352 352 352 353 355 357 352 351 355 354 355 352
363 365 364 362 362 362 362 362 362 362 361 361 361 360 360 360 361 361 361 361 360 358 356 355 354 353 353 353 353 353 354 354 356 357 358 356 354 350 351 352 354 356 356
361 363 365 362 362 361 362 362 361 361 360 360 360 360 360 360 361 361 360 360 360 357 356 355 353 352 352 353 352 353 353 354 356 355 355 356 354 348 349 352 357 357 357
360 363 363 363 361 360 360 360 359 358 358 359 359 359 360 359 360 360 361 361 360 358 357 355 353 351 350 352 351 351 353 353 355 355 355 354 353 348 349 354 358 359 358
358 361 361 359 361 360 360 359 358 357 357 357 357 358 358 359 359 359 360 360 358 357 357 356 353 351 349 349 349 352 353 353 353 354 353 353 352 348 349 354 357 359 359
358 360 359 358 355 354 356 359 358 357 357 356 357 357 358 358 359 359 358 359 358 357 356 353 351 350 349 348 349 350 352 352 351 351 352 350 350 349 350 353 355 357 358
356 358 359 358 355 352 351 355 357 357 357 356 356 356 354 347 352 355 354 356 355 354 353 351 350 349 349 349 349 349 348 344 344 344 344 350 350 348 349 355 357 357 357
354 356 358 360 357 353 349 354 352 351 351 349 349 351 346 348 350 349 353 354 354 353 353 352 352 351 348 343 345 348 341 340 342 341 341 348 348 346 350 354 355 356 357
355 356 358 362 361 356 352 352 350 351 350 351 352 351 350 350 352 349 349 348 350 351 347 349 349 347 345 346 343 342 342 342 343 344 348 348 347 347 350 353 355 356 355
354 356 359 361 361 360 355 352 351 350 352 352 353 354 352 349 351 348 346 346 348 345 346 346 343 349 347 348 347 347 348 349 348 349 351 352 350 348 350 353 355 356 355
354 357 359 361 362 360 359 355 354 353 352 352 353 353 350 347 348 347 348 346 345 346 349 350 348 352 352 351 351 350 350 351 352 351 351 356 351 350 351 352 351 350 352
354 358 360 360 363 363 360 359 356 355 353 353 353 353 351 348 348 344 347 346 344 349 353 354 355 355 353 352 351 353 353 353 353 354 352 353 353 351 351 350 347 349 349
354 359 361 362 361 364 362 360 357 355 353 353 353 356 353 352 352 348 343 343 343 353 357 357 357 355 353 354 354 354 355 356 354 355 354 352 351 351 349 346 347 346 348
355 357 360 356 361 363 362 359 356 355 353 352 352 354 354 353 351 349 343 342 348 354 353 353 353 353 354 353 353 353 353 354 353 354 352 350 347 344 345 349 345 344 344
354 358 356 358 360 361 362 359 359 360 355 353 353 352 355 353 351 348 346 353 359 353 353 357 355 352 349 349 348 350 351 349 349 346 347 344 344 343 343 346 345 344 335
354 359 358 357 359 360 359 358 356 356 354 353 352 352 356 354 352 351 346 355 356 356 358 355 351 348 346 348 343 344 347 346 346 343 341 342 342 343 342 343 342 340 338
356 358 354 356 361 356 353 350 350 348 351 351 352 355 355 354 353 349 347 348 353 344 342 342 341 343 339 343 340 341 339 343 341 341 341 341 341 341 342 342 341 340 339
355 354 355 356 356 353 352 352 350 350 350 351 352 354 354 353 354 352 352 345 345 341 333 338 338 338 339 343 336 335 329 332 336 339 340 339 340 340 337 338 338 338 338
352 355 356 356 353 355 355 353 353 353 352 349 351 352 354 354 353 350 344 343 338 336 329 328 332 337 337 340 342 333 327 323 329 333 336 335 336 334 334 333 331 331 330
353 357 358 357 355 354 354 353 351 345 345 348 347 344 343 347 342 342 340 337 341 331 331 333 334 337 338 336 339 338 340 335 326 323 330 330 330 327 329 323 323 324 326
355 355 356 351 352 353 354 352 349 345 340 342 344 346 344 344 345 344 344 341 334 332 336 335 336 335 335 334 331 330 331 330 331 324 315 316 318 318 319 321 322 324 325
353 351 354 353 353 353 352 355 344 342 341 342 345 345 345 344 344 343 341 342 340 340 338 335 333 329 327 326 325 324 321 317 315 314 311 312 313 317 320 322 322 322 323
Wind_Speed
16 21 17 16 16 16 17 19 20 20 19 19 19 18 17 17 17 17 16 14 13 12 12 11 10 10 10 10 9 9 9 9 8 9 9 8 7 5 4 3 4 8 7
20 21 16 16 16 18 18 19 20 20 19 19 19 18 17 16 16 16 16 13 12 13 12 11 10 9 10 9 9 9 9 8 8 7 7 9 6 5 4 3 5 7 5
20 20 19 16 18 18 18 18 19 19 20 19 18 18 17 16 14 15 14 13 11 12 11 10 9 7 7 7 8 8 8 8 7 7 8 9 9 8 7 6 6 5 5
21 19 21 17 18 19 19 18 19 20 20 20 19 18 17 16 14 13 13 12 12 12 10 10 9 8 7 7 7 8 7 7 6 7 10 3 3 11 7 7 8 8 9
21 21 20 18 18 18 19 19 18 19 19 19 19 18 17 16 14 12 12 10 11 11 11 9 8 8 7 7 6 6 6 6 6 9 4 4 3 12 10 9 10 12 11
21 21 22 20 18 19 18 18 18 18 19 19 19 18 17 16 14 13 11 11 10 10 10 9 7 7 7 7 7 8 8 8 9 11 4 4 7 8 5 10 12 10 8
20 18 21 19 18 18 18 18 18 18 18 18 18 18 17 16 14 13 12 11 10 10 9 9 8 7 7 7 7 8 8 8 11 5 6 6 5 5 5 10 13 13 13
20 19 21 19 19 18 18 17 17 17 17 17 16 17 16 15 14 12 11 10 10 9 8 8 7 6 7 7 8 8 8 9 10 9 7 6 6 1 7 7 11 14 15
19 19 19 20 18 18 18 18 17 17 17 17 17 16 15 14 12 11 9 8 8 8 8 8 7 6 5 6 6 7 7 9 12 8 7 6 9 2 8 9 10 13 15
18 18 20 19 19 18 16 15 16 16 16 16 16 15 14 13 11 10 8 8 8 8 7 5 4 4 5 5 6 7 9 11 13 12 8 7 4 6 11 11 11 12 15
16 18 19 19 19 18 18 15 14 15 14 14 13 13 11 11 12 13 6 12 6 5 5 4 4 3 4 8 9 8 9 9 11 8 7 8 1 9 13 13 13 14 14
20 20 18 18 18 17 13 16 14 13 12 11 12 13 10 10 9 8 9 7 5 4 4 4 4 4 8 7 8 11 8 10 7 9 8 5 3 10 14 14 14 15 15
20 17 19 17 16 17 13 11 8 8 8 8 11 12 8 7 7 6 6 7 7 8 7 9 9 8 4 5 5 5 7 7 7 7 8 6 6 12 15 15 15 16 16
20 19 19 20 17 16 11 11 11 9 8 7 9 11 7 6 7 6 5 5 4 5 4 4 4 2 4 5 7 7 8 8 7 7 9 7 7 10 14 14 14 14 15
18 20 19 18 17 15 14 11 10 9 9 9 9 10 8 7 6 6 5 5 4 4 5 4 3 2 3 5 6 7 8 10 11 8 8 5 6 8 12 15 18 18 17
18 20 19 18 16 15 13 13 10 9 10 8 8 9 9 7 6 6 6 6 5 5 3 3 3 3 4 5 6 7 10 11 13 13 10 11 6 10 10 11 16 18 18
17 18 18 15 16 16 14 12 10 9 9 8 8 9 10 8 7 6 6 5 5 4 4 4 5 5 5 5 6 7 9 10 11 12 11 11 12 7 6 10 10 15 16
18 20 18 13 18 17 14 12 9 9 8 7 7 8 10 8 6 6 4 5 4 4 5 4 4 5 5 5 6 6 9 10 12 13 12 10 9 9 6 8 5 10 10
18 19 18 19 19 17 14 11 9 9 7 6 6 6 8 7 6 4 4 3 3 4 5 3 3 4 4 5 8 5 10 11 12 10 9 9 9 8 9 5 1 7 1
17 18 16 16 17 17 12 9 7 7 6 5 5 5 7 5 6 6 4 2 4 2 4 4 5 5 4 6 9 9 10 10 10 7 5 8 8 10 11 8 9 5 6
17 16 15 16 15 10 10 10 8 8 7 6 5 5 6 5 5 4 3 1 7 9 10 9 7 6 5 9 9 9 10 11 4 7 6 9 10 11 11 9 8 9 9
17 17 19 19 14 13 10 7 6 6 6 6 6 6 6 6 6 5 4 9 9 8 9 11 9 6 4 5 6 10 10 10 3 8 7 10 10 10 13 13 14 13 11
17 21 22 21 19 16 14 10 8 8 8 7 8 6 7 7 11 12 11 9 10 9 6 5 7 8 7 8 5 5 7 7 11 6 10 9 13 12 12 13 16 14 13
21 21 20 18 16 16 16 13 11 8 8 8 8 7 8 12 13 13 11 9 12 7 4 3 3 6 4 6 5 4 7 8 5 8 8 12 11 14 14 13 14 14 14
20 19 17 16 17 16 15 13 11 13 9 8 9 13 11 9 12 13 11 10 5 3 4 2 2 4 2 4 4 6 8 8 8 7 12 11 12 12 13 15 14 13 13
21 20 19 20 20 18 15 14 19 18 15 12 11 10 9 9 8 9 10 7 4 3 5 4 5 4 5 5 5 5 6 5 8 8 11 12 13 12 14 12 11 11 14
Wind_Direction
152 144 161 152 143 140 144 146 144 143 143 145 147 149 151 151 149 147 148 144 136 133 135 138 139 137 143 133 122 121 123 126 124 125 129 128 133 136 135 154 199 203 114
150 147 161 153 147 143 146 146 145 145 146 147 147 147 149 154 153 150 147 141 138 138 137 138 138 134 133 129 124 123 124 128 131 132 140 145 142 148 161 198 248 47 147
151 155 166 159 150 145 145 145 145 147 146 147 147 148 151 154 154 151 145 142 142 139 137 135 132 125 120 120 123 125 127 136 142 154 193 210 159 172 205 198 228 245 221
151 157 165 165 153 148 146 147 150 150 149 148 149 150 151 151 152 149 145 144 145 142 136 134 133 129 128 129 131 134 137 145 159 186 215 176 166 156 208 230 228 225 229
159 160 159 166 155 150 149 151 153 151 150 148 149 150 150 149 149 149 146 144 147 144 140 137 133 131 133 135 141 145 150 162 185 222 199 220 238 151 194 226 228 218 224
162 164 144 162 158 153 155 154 156 153 150 151 149 149 150 149 148 146 143 144 150 146 142 138 135 135 147 154 159 167 177 192 218 231 235 177 263 107 215 229 239 256 225
161 162 158 161 156 155 156 158 160 153 150 150 149 148 149 149 147 146 146 148 148 149 149 146 149 154 163 174 183 189 195 212 245 199 241 248 269 62 291 251 238 237 236
162 161 160 158 157 159 159 160 156 150 150 149 149 148 148 147 149 147 151 152 153 159 159 156 158 171 180 190 198 207 218 239 233 260 257 264 116 179 282 263 244 240 238
165 164 163 168 161 159 163 162 156 152 154 153 151 148 148 148 148 146 149 151 161 165 170 173 178 188 200 213 222 232 249 265 280 275 267 265 109 208 281 278 260 248 245
167 171 171 170 169 171 168 163 155 155 155 151 148 146 149 144 145 149 150 163 175 175 175 182 191 204 220 232 244 253 262 269 258 270 266 261 62 313 292 285 277 268 253
173 175 176 173 174 181 171 161 154 153 148 143 141 143 147 173 173 161 167 141 184 187 186 194 204 220 239 235 234 249 262 256 263 261 271 97 103 279 281 276 276 276 269
182 178 180 177 177 182 169 158 169 160 165 168 168 167 184 167 184 186 142 146 186 204 209 213 222 236 235 246 195 211 239 256 282 279 277 95 280 282 280 282 282 280 275
188 182 183 177 181 178 170 167 170 166 161 169 170 177 183 171 174 201 172 184 198 189 215 191 194 221 234 298 289 286 292 279 265 277 281 156 232 267 280 280 280 279 277
189 187 187 177 180 183 170 180 169 171 168 175 174 178 164 191 174 199 202 193 205 186 211 223 223 282 275 276 277 286 282 285 286 300 295 182 230 264 279 285 288 287 287
192 193 190 181 186 183 179 178 175 172 182 178 169 179 180 190 185 192 190 213 208 191 184 215 215 244 261 253 272 291 295 292 289 287 301 303 238 266 283 300 307 305 297
200 196 189 184 191 185 185 175 175 178 176 177 179 175 186 196 183 189 194 209 214 221 205 217 200 257 262 277 271 288 288 292 294 302 302 306 238 240 261 299 309 309 305
206 197 190 182 183 185 181 172 182 170 173 183 183 176 194 200 179 213 208 217 213 208 247 234 242 233 255 273 304 278 282 280 278 292 298 299 304 270 238 268 294 310 311
208 193 183 176 189 182 175 173 181 164 183 181 184 177 191 189 189 202 206 219 210 227 235 250 274 310 317 324 284 307 313 293 294 300 289 304 304 305 285 214 269 309 324
201 194 168 185 185 180 172 172 178 159 190 184 183 178 172 182 181 225 220 181 234 252 256 333 281 349 352 322 296 335 309 294 301 300 311 306 299 301 318 314 254 262 76
195 189 161 189 178 175 165 163 170 155 182 175 172 168 158 176 172 192 196 243 258 325 350 350 348 4 323 309 335 336 309 296 302 307 307 305 323 320 309 329 320 308 148
188 174 160 181 167 159 166 170 166 167 164 163 146 128 154 125 148 157 257 181 31 40 33 12 350 348 350 11 344 327 321 290 296 333 325 329 323 330 307 298 300 325 309
178 162 166 179 152 162 169 167 163 160 158 153 147 149 132 136 143 153 123 83 69 60 27 4 348 348 301 33 337 307 310 315 203 336 324 315 328 321 317 331 315 315 317
175 174 174 176 157 173 152 139 136 126 133 154 152 129 128 127 87 95 92 91 91 87 58 20 344 346 316 334 302 307 311 312 334 314 317 327 334 318 324 318 315 315 315
184 183 169 165 160 164 155 143 157 155 125 82 96 94 86 103 115 118 127 132 125 134 137 223 339 317 319 307 308 261 290 288 302 309 325 321 313 326 320 310 312 330 311
184 175 152 148 158 154 153 146 125 97 109 115 129 120 123 139 150 149 149 139 132 110 147 231 11 21 343 326 318 314 302 298 294 316 310 321 319 316 315 310 326 311 322
174 147 144 155 149 154 136 117 116 134 140 141 143 148 164 156 142 126 136 130 126 133 117 98 64 32 19 0 324 328 323 326 323 325 312 315 316 322 317 297 293 303 312